Time,TemperatureF,DewpointF,PressureIn,WindDirection,WindDirectionDegrees,WindSpeedMPH,WindSpeedGustMPH,Humidity,HourlyPrecipIn,Conditions,Clouds,dailyrainin,SoftwareType,DateUTC
2013-12-05 00:01:00,66.2,63.2,30.07,South,184,0.0,0.0,90,0.00,,,0.00,WeatherCatV1.21B27,2013-12-05 05:01:00,
2013-12-05 00:02:00,66.1,63.1,30.07,South,184,0.0,0.0,90,0.00,,,0.00,WeatherCatV1.21B27,2013-12-05 05:02:00,
2013-12-05 00:07:00,66.1,63.4,30.07,South,184,0.0,0.0,91,0.00,,,0.00,WeatherCatV1.21B27,2013-12-05 05:07:00,
2013-12-05 00:12:00,66.0,63.0,30.07,South,184,0.0,0.0,90,0.00,,,0.00,WeatherCatV1.21B27,2013-12-05 05:12:00,
2013-12-05 00:17:00,65.9,63.2,30.07,South,184,0.0,0.0,91,0.00,,,0.00,WeatherCatV1.21B27,2013-12-05 05:17:00,
2013-12-05 00:22:00,66.0,63.6,30.07,South,184,0.0,0.0,92,0.00,,,0.00,WeatherCatV1.21B27,2013-12-05 05:22:00,
2013-12-05 00:27:00,66.1,63.7,30.07,South,184,0.0,0.0,92,0.00,,,0.00,WeatherCatV1.21B27,2013-12-05 05:27:00,
2013-12-05 00:32:00,66.1,63.7,30.07,South,184,0.0,0.0,92,0.00,,,0.00,WeatherCatV1.21B27,2013-12-05 05:32:00,
2013-12-05 00:37:00,66.2,63.8,30.07,South,184,0.0,0.0,92,0.00,,,0.00,WeatherCatV1.21B27,2013-12-05 05:37:00,
2013-12-05 00:42:00,66.2,63.8,30.07,South,184,0.0,0.0,92,0.00,,,0.00,WeatherCatV1.21B27,2013-12-05 05:42:00,
2013-12-05 00:47:00,66.1,63.7,30.07,South,184,0.0,0.0,92,0.00,,,0.00,WeatherCatV1.21B27,2013-12-05 05:47:00,
2013-12-05 00:52:00,66.1,63.7,30.07,South,184,0.0,0.0,92,0.00,,,0.00,WeatherCatV1.21B27,2013-12-05 05:52:00,
2013-12-05 00:57:00,66.1,63.7,30.07,South,184,0.0,0.0,92,0.00,,,0.00,WeatherCatV1.21B27,2013-12-05 05:57:00,
2013-12-05 01:02:00,66.1,63.7,30.07,South,184,0.0,0.0,92,0.00,,,0.00,WeatherCatV1.21B27,2013-12-05 06:02:00,
2013-12-05 01:07:00,66.0,63.6,30.08,South,184,0.0,0.0,92,0.00,,,0.00,WeatherCatV1.21B27,2013-12-05 06:07:00,
2013-12-05 01:12:00,65.9,63.5,30.08,South,184,0.0,0.0,92,0.00,,,0.00,WeatherCatV1.21B27,2013-12-05 06:12:00,
2013-12-05 01:17:00,65.8,63.4,30.08,South,184,0.0,0.0,92,0.00,,,0.00,WeatherCatV1.21B27,2013-12-05 06:17:00,
2013-12-05 01:22:00,65.7,63.0,30.08,South,184,0.0,0.0,91,0.00,,,0.00,WeatherCatV1.21B27,2013-12-05 06:22:00,
2013-12-05 01:27:00,65.6,62.9,30.08,South,184,0.0,0.0,91,0.00,,,0.00,WeatherCatV1.21B27,2013-12-05 06:27:00,
2013-12-05 01:32:00,65.5,62.8,30.08,South,184,0.0,0.0,91,0.00,,,0.00,WeatherCatV1.21B27,2013-12-05 06:32:00,
2013-12-05 01:37:00,65.4,62.7,30.07,South,184,0.0,0.0,91,0.00,,,0.00,WeatherCatV1.21B27,2013-12-05 06:37:00,
2013-12-05 01:42:00,65.4,62.7,30.07,South,184,0.0,0.0,91,0.00,,,0.00,WeatherCatV1.21B27,2013-12-05 06:42:00,
2013-12-05 01:47:00,65.3,62.6,30.07,South,184,0.0,0.0,91,0.00,,,0.00,WeatherCatV1.21B27,2013-12-05 06:47:00,
2013-12-05 01:52:00,65.4,63.0,30.07,South,184,0.0,0.0,92,0.00,,,0.00,WeatherCatV1.21B27,2013-12-05 06:52:00,
2013-12-05 01:57:00,65.5,63.1,30.07,South,184,0.0,0.0,92,0.00,,,0.00,WeatherCatV1.21B27,2013-12-05 06:57:00,
2013-12-05 02:02:00,65.7,63.6,30.07,South,184,0.0,0.0,93,0.00,,,0.00,WeatherCatV1.21B27,2013-12-05 07:02:00,
2013-12-05 02:07:00,65.7,63.6,30.07,South,184,0.0,1.0,93,0.00,,,0.00,WeatherCatV1.21B27,2013-12-05 07:07:00,
2013-12-05 02:12:00,65.9,63.8,30.07,South,184,0.0,1.0,93,0.00,,,0.00,WeatherCatV1.21B27,2013-12-05 07:12:00,
2013-12-05 02:17:00,65.9,63.8,30.07,ESE,118,0.0,1.0,93,0.00,,,0.00,WeatherCatV1.21B27,2013-12-05 07:17:00,
2013-12-05 02:22:00,66.0,63.9,30.07,ESE,118,0.0,0.0,93,0.00,,,0.00,WeatherCatV1.21B27,2013-12-05 07:22:00,
2013-12-05 02:27:00,66.0,63.9,30.07,ESE,118,0.0,1.0,93,0.00,,,0.00,WeatherCatV1.21B27,2013-12-05 07:27:00,
2013-12-05 02:32:00,65.9,63.8,30.07,ESE,118,0.0,1.0,93,0.00,,,0.00,WeatherCatV1.21B27,2013-12-05 07:32:00,
2013-12-05 02:37:00,65.9,63.8,30.07,ESE,118,0.0,0.0,93,0.00,,,0.00,WeatherCatV1.21B27,2013-12-05 07:37:00,
2013-12-05 02:42:00,65.9,63.8,30.07,ESE,118,0.0,0.0,93,0.00,,,0.00,WeatherCatV1.21B27,2013-12-05 07:42:00,
2013-12-05 02:47:00,65.9,63.8,30.07,ESE,118,0.0,0.0,93,0.00,,,0.00,WeatherCatV1.21B27,2013-12-05 07:47:00,
2013-12-05 02:52:00,65.8,63.4,30.07,ESE,118,0.0,0.0,92,0.00,,,0.00,WeatherCatV1.21B27,2013-12-05 07:52:00,
2013-12-05 02:57:00,65.7,63.3,30.07,ESE,118,0.0,0.0,92,0.00,,,0.00,WeatherCatV1.21B27,2013-12-05 07:57:00,
2013-12-05 03:02:00,65.7,63.3,30.07,ESE,118,0.0,0.0,92,0.00,,,0.00,WeatherCatV1.21B27,2013-12-05 08:02:00,
2013-12-05 03:07:00,65.7,63.6,30.08,ESE,118,0.0,0.0,93,0.00,,,0.00,WeatherCatV1.21B27,2013-12-05 08:07:00,
2013-12-05 03:12:00,65.8,63.7,30.08,ESE,118,0.0,0.0,93,0.00,,,0.00,WeatherCatV1.21B27,2013-12-05 08:12:00,
2013-12-05 03:17:00,65.7,63.6,30.08,ESE,118,0.0,0.0,93,0.00,,,0.00,WeatherCatV1.21B27,2013-12-05 08:17:00,
2013-12-05 03:22:00,65.7,63.6,30.08,ESE,118,0.0,0.0,93,0.00,,,0.00,WeatherCatV1.21B27,2013-12-05 08:22:00,
2013-12-05 03:27:00,65.6,63.2,30.07,ESE,118,0.0,0.0,92,0.00,,,0.00,WeatherCatV1.21B27,2013-12-05 08:27:00,
2013-12-05 03:32:00,65.5,63.1,30.07,ESE,118,0.0,0.0,92,0.00,,,0.00,WeatherCatV1.21B27,2013-12-05 08:32:00,
2013-12-05 03:37:00,65.5,63.4,30.07,ESE,118,0.0,0.0,93,0.00,,,0.00,WeatherCatV1.21B27,2013-12-05 08:37:00,
2013-12-05 03:42:00,65.5,63.4,30.08,ESE,118,0.0,1.0,93,0.00,,,0.00,WeatherCatV1.21B27,2013-12-05 08:42:00,
2013-12-05 03:47:00,65.5,63.4,30.08,ESE,118,0.0,0.0,93,0.00,,,0.00,WeatherCatV1.21B27,2013-12-05 08:47:00,
2013-12-05 03:52:00,65.5,63.4,30.08,ESE,118,0.0,0.0,93,0.00,,,0.00,WeatherCatV1.21B27,2013-12-05 08:52:00,
2013-12-05 03:57:00,65.5,63.4,30.08,ESE,118,0.0,0.0,93,0.00,,,0.00,WeatherCatV1.21B27,2013-12-05 08:57:00,
2013-12-05 04:02:00,65.4,63.3,30.08,ESE,118,0.0,0.0,93,0.00,,,0.00,WeatherCatV1.21B27,2013-12-05 09:02:00,
2013-12-05 04:07:00,65.4,63.3,30.08,ESE,118,0.0,0.0,93,0.00,,,0.00,WeatherCatV1.21B27,2013-12-05 09:07:00,
2013-12-05 04:12:00,65.4,63.3,30.08,ESE,118,0.0,0.0,93,0.00,,,0.00,WeatherCatV1.21B27,2013-12-05 09:12:00,
2013-12-05 04:18:00,65.3,63.2,30.08,ESE,118,0.0,1.0,93,0.00,,,0.00,WeatherCatV1.21B27,2013-12-05 09:18:00,
2013-12-05 04:23:00,65.3,63.2,30.08,ESE,118,0.0,0.0,93,0.00,,,0.00,WeatherCatV1.21B27,2013-12-05 09:23:00,
2013-12-05 04:28:00,65.3,63.2,30.08,East,87,2.0,2.0,93,0.00,,,0.00,WeatherCatV1.21B27,2013-12-05 09:28:00,
2013-12-05 04:33:00,65.4,63.3,30.08,East,82,1.0,1.0,93,0.00,,,0.00,WeatherCatV1.21B27,2013-12-05 09:33:00,
2013-12-05 04:38:00,65.4,63.3,30.08,East,82,0.0,1.0,93,0.00,,,0.00,WeatherCatV1.21B27,2013-12-05 09:38:00,
2013-12-05 04:43:00,65.5,63.4,30.08,East,87,0.0,1.0,93,0.00,,,0.00,WeatherCatV1.21B27,2013-12-05 09:43:00,
2013-12-05 04:48:00,65.5,63.4,30.08,ENE,76,0.0,4.0,93,0.00,,,0.00,WeatherCatV1.21B27,2013-12-05 09:48:00,
2013-12-05 04:53:00,65.6,63.5,30.08,ENE,76,0.0,0.0,93,0.00,,,0.00,WeatherCatV1.21B27,2013-12-05 09:53:00,
2013-12-05 04:58:00,65.5,63.4,30.08,ENE,76,0.0,0.0,93,0.00,,,0.00,WeatherCatV1.21B27,2013-12-05 09:58:00,
2013-12-05 05:03:00,65.4,63.3,30.09,ENE,76,0.0,0.0,93,0.00,,,0.00,WeatherCatV1.21B27,2013-12-05 10:03:00,
2013-12-05 05:08:00,65.4,63.3,30.09,ENE,73,0.0,0.0,93,0.00,,,0.00,WeatherCatV1.21B27,2013-12-05 10:08:00,
2013-12-05 05:13:00,65.3,63.2,30.09,ENE,73,0.0,0.0,93,0.00,,,0.00,WeatherCatV1.21B27,2013-12-05 10:13:00,
2013-12-05 05:18:00,65.3,63.2,30.09,East,80,0.0,1.0,93,0.00,,,0.00,WeatherCatV1.21B27,2013-12-05 10:18:00,
2013-12-05 05:23:00,65.3,63.2,30.09,ENE,75,0.0,1.0,93,0.00,,,0.00,WeatherCatV1.21B27,2013-12-05 10:23:00,
2013-12-05 05:28:00,65.3,63.2,30.09,ENE,75,0.0,1.0,93,0.00,,,0.00,WeatherCatV1.21B27,2013-12-05 10:28:00,
2013-12-05 05:33:00,65.3,63.2,30.09,ENE,75,0.0,1.0,93,0.00,,,0.00,WeatherCatV1.21B27,2013-12-05 10:33:00,
2013-12-05 05:38:00,65.3,63.2,30.09,ENE,74,0.0,1.0,93,0.00,,,0.00,WeatherCatV1.21B27,2013-12-05 10:38:00,
2013-12-05 05:43:00,65.2,63.1,30.09,ENE,74,0.0,2.0,93,0.00,,,0.00,WeatherCatV1.21B27,2013-12-05 10:43:00,
2013-12-05 05:48:00,65.2,63.1,30.09,ENE,75,0.0,1.0,93,0.00,,,0.00,WeatherCatV1.21B27,2013-12-05 10:48:00,
2013-12-05 05:53:00,65.1,63.0,30.09,ENE,74,0.0,1.0,93,0.00,,,0.00,WeatherCatV1.21B27,2013-12-05 10:53:00,
2013-12-05 05:58:00,65.1,63.0,30.09,ENE,74,0.0,1.0,93,0.00,,,0.00,WeatherCatV1.21B27,2013-12-05 10:58:00,
2013-12-05 06:03:00,65.0,62.6,30.09,ENE,76,1.0,1.0,92,0.00,,,0.00,WeatherCatV1.21B27,2013-12-05 11:03:00,
2013-12-05 06:08:00,65.0,62.6,30.10,ENE,78,1.0,2.0,92,0.00,,,0.00,WeatherCatV1.21B27,2013-12-05 11:08:00,
2013-12-05 06:13:00,65.0,62.6,30.10,ENE,78,0.0,1.0,92,0.00,,,0.00,WeatherCatV1.21B27,2013-12-05 11:13:00,
2013-12-05 06:18:00,64.9,62.5,30.10,East,93,0.0,0.0,92,0.00,,,0.00,WeatherCatV1.21B27,2013-12-05 11:18:00,
2013-12-05 06:23:00,64.9,62.5,30.10,East,93,0.0,0.0,92,0.00,,,0.00,WeatherCatV1.21B27,2013-12-05 11:23:00,
2013-12-05 06:28:00,64.8,62.4,30.10,East,93,0.0,1.0,92,0.00,,,0.00,WeatherCatV1.21B27,2013-12-05 11:28:00,
2013-12-05 06:33:00,64.8,62.4,30.10,East,94,0.0,1.0,92,0.00,,,0.00,WeatherCatV1.21B27,2013-12-05 11:33:00,
2013-12-05 06:38:00,64.7,62.3,30.10,East,94,0.0,1.0,92,0.00,,,0.00,WeatherCatV1.21B27,2013-12-05 11:38:00,
2013-12-05 06:43:00,64.7,62.3,30.11,East,96,1.0,1.0,92,0.00,,,0.00,WeatherCatV1.21B27,2013-12-05 11:43:00,
2013-12-05 06:48:00,64.8,62.4,30.11,East,90,1.0,4.0,92,0.00,,,0.00,WeatherCatV1.21B27,2013-12-05 11:48:00,
2013-12-05 06:53:00,64.7,62.3,30.11,East,82,4.0,4.0,92,0.00,,,0.00,WeatherCatV1.21B27,2013-12-05 11:53:00,
2013-12-05 06:58:00,64.7,62.3,30.11,East,82,1.0,2.0,92,0.00,,,0.00,WeatherCatV1.21B27,2013-12-05 11:58:00,
2013-12-05 07:03:00,64.7,62.3,30.11,East,93,0.0,2.0,92,0.00,,,0.00,WeatherCatV1.21B27,2013-12-05 12:03:00,
2013-12-05 07:08:00,64.7,62.3,30.11,East,94,0.0,1.0,92,0.00,,,0.00,WeatherCatV1.21B27,2013-12-05 12:08:00,
2013-12-05 07:13:00,64.7,62.3,30.12,East,94,0.0,1.0,92,0.00,,,0.00,WeatherCatV1.21B27,2013-12-05 12:13:00,
2013-12-05 07:18:00,64.7,62.3,30.11,East,94,0.0,1.0,92,0.00,,,0.00,WeatherCatV1.21B27,2013-12-05 12:18:00,
2013-12-05 07:23:00,64.7,62.3,30.12,ESE,110,0.0,2.0,92,0.00,,,0.00,WeatherCatV1.21B27,2013-12-05 12:23:00,
2013-12-05 07:28:00,64.8,62.4,30.12,ESE,105,0.0,1.0,92,0.00,,,0.00,WeatherCatV1.21B27,2013-12-05 12:28:00,
2013-12-05 07:33:00,64.9,62.5,30.12,East,83,0.0,2.0,92,0.00,,,0.00,WeatherCatV1.21B27,2013-12-05 12:33:00,
2013-12-05 07:38:00,65.0,62.6,30.12,East,85,1.0,2.0,92,0.00,,,0.00,WeatherCatV1.21B27,2013-12-05 12:38:00,
2013-12-05 07:43:00,65.1,63.0,30.12,ESE,103,0.0,2.0,93,0.00,,,0.00,WeatherCatV1.21B27,2013-12-05 12:43:00,
2013-12-05 07:48:00,65.3,63.2,30.13,ESE,105,1.0,2.0,93,0.00,,,0.00,WeatherCatV1.21B27,2013-12-05 12:48:00,
2013-12-05 07:53:00,65.6,63.5,30.13,East,90,0.0,2.0,93,0.00,,,0.00,WeatherCatV1.21B27,2013-12-05 12:53:00,
2013-12-05 07:58:00,65.8,63.7,30.13,East,92,0.0,1.0,93,0.00,,,0.00,WeatherCatV1.21B27,2013-12-05 12:58:00,
2013-12-05 08:03:00,66.1,64.0,30.13,SE,131,0.0,1.0,93,0.00,,,0.00,WeatherCatV1.21B27,2013-12-05 13:03:00,
2013-12-05 08:08:00,66.4,64.0,30.13,East,90,0.0,1.0,92,0.00,,,0.00,WeatherCatV1.21B27,2013-12-05 13:08:00,
2013-12-05 08:13:00,66.8,64.4,30.13,ESE,115,0.0,3.0,92,0.00,,,0.00,WeatherCatV1.21B27,2013-12-05 13:13:00,
2013-12-05 08:18:00,67.2,64.8,30.14,ESE,110,0.0,1.0,92,0.00,,,0.00,WeatherCatV1.21B27,2013-12-05 13:18:00,
2013-12-05 08:23:00,67.6,64.9,30.14,ESE,109,0.0,2.0,91,0.00,,,0.00,WeatherCatV1.21B27,2013-12-05 13:23:00,
2013-12-05 08:28:00,68.0,65.3,30.14,ESE,117,3.0,4.0,91,0.00,,,0.00,WeatherCatV1.21B27,2013-12-05 13:28:00,
2013-12-05 08:33:00,68.4,65.7,30.14,ESE,109,0.0,4.0,91,0.00,,,0.00,WeatherCatV1.21B27,2013-12-05 13:33:00,
2013-12-05 08:38:00,68.8,65.7,30.14,ESE,112,4.0,6.0,90,0.00,,,0.00,WeatherCatV1.21B27,2013-12-05 13:38:00,
2013-12-05 08:43:00,69.2,66.1,30.14,ESE,117,0.0,2.0,90,0.00,,,0.00,WeatherCatV1.21B27,2013-12-05 13:43:00,
2013-12-05 08:48:00,69.6,66.2,30.14,ESE,117,5.0,7.0,89,0.00,,,0.00,WeatherCatV1.21B27,2013-12-05 13:48:00,
2013-12-05 08:53:00,70.1,66.7,30.14,ESE,113,2.0,7.0,89,0.00,,,0.00,WeatherCatV1.21B27,2013-12-05 13:53:00,
2013-12-05 08:58:00,70.5,66.8,30.15,SSE,150,0.0,6.0,88,0.00,,,0.00,WeatherCatV1.21B27,2013-12-05 13:58:00,
2013-12-05 09:03:00,71.0,67.3,30.15,East,98,1.0,5.0,88,0.00,,,0.00,WeatherCatV1.21B27,2013-12-05 14:03:00,
2013-12-05 09:08:00,71.5,67.4,30.15,SE,136,3.0,5.0,87,0.00,,,0.00,WeatherCatV1.21B27,2013-12-05 14:08:00,
2013-12-05 09:13:00,72.1,68.0,30.15,ENE,67,0.0,2.0,87,0.00,,,0.00,WeatherCatV1.21B27,2013-12-05 14:13:00,
2013-12-05 09:18:00,72.6,68.2,30.15,South,191,0.0,3.0,86,0.00,,,0.00,WeatherCatV1.21B27,2013-12-05 14:18:00,
2013-12-05 09:23:00,73.0,68.2,30.15,East,94,3.0,7.0,85,0.00,,,0.00,WeatherCatV1.21B27,2013-12-05 14:23:00,
2013-12-05 09:28:00,73.4,68.6,30.15,ESE,108,0.0,2.0,85,0.00,,,0.00,WeatherCatV1.21B27,2013-12-05 14:28:00,
2013-12-05 09:33:00,73.8,68.7,30.15,ESE,105,1.0,7.0,84,0.00,,,0.00,WeatherCatV1.21B27,2013-12-05 14:33:00,
2013-12-05 09:38:00,74.2,68.7,30.16,ENE,67,1.0,2.0,83,0.00,,,0.00,WeatherCatV1.21B27,2013-12-05 14:38:00,
2013-12-05 09:43:00,74.5,68.6,30.16,SSW,194,1.0,5.0,82,0.00,,,0.00,WeatherCatV1.21B27,2013-12-05 14:43:00,
2013-12-05 09:48:00,74.9,69.0,30.16,SSE,153,2.0,4.0,82,0.00,,,0.00,WeatherCatV1.21B27,2013-12-05 14:48:00,
2013-12-05 09:53:00,75.3,69.1,30.16,ENE,74,1.0,5.0,81,0.00,,,0.00,WeatherCatV1.21B27,2013-12-05 14:53:00,
2013-12-05 09:58:00,75.7,69.1,30.16,SSW,203,2.0,3.0,80,0.00,,,0.00,WeatherCatV1.21B27,2013-12-05 14:58:00,
2013-12-05 10:03:00,76.0,68.6,30.16,SE,144,0.0,6.0,78,0.00,,,0.00,WeatherCatV1.21B27,2013-12-05 15:03:00,
2013-12-05 10:08:00,76.3,68.5,30.16,South,190,0.0,5.0,77,0.00,,,0.00,WeatherCatV1.21B27,2013-12-05 15:08:00,
2013-12-05 10:13:00,76.6,68.8,30.16,ESE,111,5.0,7.0,77,0.00,,,0.00,WeatherCatV1.21B27,2013-12-05 15:13:00,
2013-12-05 10:18:00,76.9,68.7,30.16,ESE,113,4.0,8.0,76,0.00,,,0.00,WeatherCatV1.21B27,2013-12-05 15:18:00,
2013-12-05 10:23:00,77.1,68.6,30.16,East,90,0.0,2.0,75,0.00,,,0.00,WeatherCatV1.21B27,2013-12-05 15:23:00,
2013-12-05 10:28:00,77.4,68.1,30.16,East,84,0.0,5.0,73,0.00,,,0.00,WeatherCatV1.21B27,2013-12-05 15:28:00,
2013-12-05 10:33:00,77.6,68.2,30.16,East,86,4.0,6.0,73,0.00,,,0.00,WeatherCatV1.21B27,2013-12-05 15:33:00,
2013-12-05 10:38:00,77.9,67.3,30.15,SSE,162,2.0,10.0,70,0.00,,,0.00,WeatherCatV1.21B27,2013-12-05 15:38:00,
2013-12-05 10:43:00,78.2,67.2,30.15,South,183,2.0,6.0,69,0.00,,,0.00,WeatherCatV1.21B27,2013-12-05 15:43:00,
2013-12-05 10:48:00,78.4,67.4,30.15,ENE,78,4.0,6.0,69,0.00,,,0.00,WeatherCatV1.21B27,2013-12-05 15:48:00,
2013-12-05 10:53:00,78.7,67.7,30.15,ESE,115,1.0,6.0,69,0.00,,,0.00,WeatherCatV1.21B27,2013-12-05 15:53:00,
2013-12-05 10:58:00,79.0,67.9,30.15,ESE,116,2.0,6.0,69,0.00,,,0.00,WeatherCatV1.21B27,2013-12-05 15:58:00,
2013-12-05 11:03:00,79.3,67.8,30.15,ESE,107,1.0,6.0,68,0.00,,,0.00,WeatherCatV1.21B27,2013-12-05 16:03:00,
2013-12-05 11:08:00,79.6,67.2,30.15,SSE,153,1.0,8.0,66,0.00,,,0.00,WeatherCatV1.21B27,2013-12-05 16:08:00,
2013-12-05 11:13:00,79.6,68.1,30.15,East,87,1.0,2.0,68,0.00,,,0.00,WeatherCatV1.21B27,2013-12-05 16:13:00,
2013-12-05 11:18:00,80.0,67.6,30.14,SSE,152,0.0,2.0,66,0.00,,,0.00,WeatherCatV1.21B27,2013-12-05 16:18:00,
2013-12-05 11:23:00,80.2,66.9,30.14,ESE,107,4.0,4.0,64,0.00,,,0.00,WeatherCatV1.21B27,2013-12-05 16:23:00,
2013-12-05 11:28:00,80.6,67.3,30.14,NE,40,5.0,5.0,64,0.00,,,0.00,WeatherCatV1.21B27,2013-12-05 16:28:00,
2013-12-05 11:33:00,80.8,67.5,30.14,East,101,5.0,6.0,64,0.00,,,0.00,WeatherCatV1.21B27,2013-12-05 16:33:00,
2013-12-05 11:38:00,80.9,67.6,30.14,ESE,102,1.0,5.0,64,0.00,,,0.00,WeatherCatV1.21B27,2013-12-05 16:38:00,
2013-12-05 11:43:00,81.2,67.4,30.14,NE,40,4.0,4.0,63,0.00,,,0.00,WeatherCatV1.21B27,2013-12-05 16:43:00,
2013-12-05 11:48:00,81.3,67.0,30.13,SE,125,1.0,7.0,62,0.00,,,0.00,WeatherCatV1.21B27,2013-12-05 16:48:00,
2013-12-05 11:53:00,81.4,67.1,30.13,SSE,165,0.0,1.0,62,0.00,,,0.00,WeatherCatV1.21B27,2013-12-05 16:53:00,
2013-12-05 11:58:00,81.9,67.6,30.13,SSE,153,0.0,5.0,62,0.00,,,0.00,WeatherCatV1.21B27,2013-12-05 16:58:00,
2013-12-05 12:03:00,82.5,68.1,30.13,South,188,2.0,5.0,62,0.00,,,0.00,WeatherCatV1.21B27,2013-12-05 17:03:00,
2013-12-05 12:08:00,82.8,67.0,30.13,ESE,104,1.0,6.0,59,0.00,,,0.00,WeatherCatV1.21B27,2013-12-05 17:08:00,
2013-12-05 12:13:00,83.1,66.8,30.12,South,180,2.0,7.0,58,0.00,,,0.00,WeatherCatV1.21B27,2013-12-05 17:13:00,
2013-12-05 12:18:00,83.0,66.7,30.12,East,87,6.0,8.0,58,0.00,,,0.00,WeatherCatV1.21B27,2013-12-05 17:18:00,
2013-12-05 12:23:00,82.8,67.5,30.12,South,185,1.0,6.0,60,0.00,,,0.00,WeatherCatV1.21B27,2013-12-05 17:23:00,
2013-12-05 12:28:00,82.6,66.3,30.11,South,169,2.0,4.0,58,0.00,,,0.00,WeatherCatV1.21B27,2013-12-05 17:28:00,
2013-12-05 12:33:00,82.4,67.1,30.11,ESE,110,1.0,2.0,60,0.00,,,0.00,WeatherCatV1.21B27,2013-12-05 17:33:00,
2013-12-05 12:38:00,82.4,66.6,30.11,East,101,1.0,5.0,59,0.00,,,0.00,WeatherCatV1.21B27,2013-12-05 17:38:00,
2013-12-05 12:43:00,82.6,67.3,30.10,SSE,161,1.0,4.0,60,0.00,,,0.00,WeatherCatV1.21B27,2013-12-05 17:43:00,
2013-12-05 12:48:00,82.6,66.3,30.10,East,91,2.0,4.0,58,0.00,,,0.00,WeatherCatV1.21B27,2013-12-05 17:48:00,
2013-12-05 12:53:00,82.9,66.1,30.10,ESE,107,0.0,7.0,57,0.00,,,0.00,WeatherCatV1.21B27,2013-12-05 17:53:00,
2013-12-05 12:58:00,83.0,67.7,30.10,South,183,0.0,1.0,60,0.00,,,0.00,WeatherCatV1.21B27,2013-12-05 17:58:00,
2013-12-05 13:03:00,82.9,70.8,30.10,SW,225,2.0,4.0,67,0.00,,,0.00,WeatherCatV1.21B27,2013-12-05 18:03:00,
2013-12-05 13:08:00,82.4,70.3,30.10,SE,124,0.0,1.0,67,0.00,,,0.00,WeatherCatV1.21B27,2013-12-05 18:08:00,
2013-12-05 13:13:00,81.8,70.6,30.10,WNW,283,0.0,2.0,69,0.00,,,0.00,WeatherCatV1.21B27,2013-12-05 18:13:00,
2013-12-05 13:18:00,81.2,69.6,30.10,South,180,0.0,2.0,68,0.00,,,0.00,WeatherCatV1.21B27,2013-12-05 18:18:00,
2013-12-05 13:23:00,81.0,70.3,30.09,SSW,209,1.0,1.0,70,0.00,,,0.00,WeatherCatV1.21B27,2013-12-05 18:23:00,
2013-12-05 13:28:00,80.9,70.2,30.09,SE,140,0.0,4.0,70,0.00,,,0.00,WeatherCatV1.21B27,2013-12-05 18:28:00,
2013-12-05 13:33:00,80.9,70.2,30.09,SW,225,0.0,8.0,70,0.00,,,0.00,WeatherCatV1.21B27,2013-12-05 18:33:00,
2013-12-05 13:38:00,80.8,70.1,30.09,SSW,207,0.0,1.0,70,0.00,,,0.00,WeatherCatV1.21B27,2013-12-05 18:38:00,
2013-12-05 13:43:00,80.8,69.7,30.09,South,184,0.0,6.0,69,0.00,,,0.00,WeatherCatV1.21B27,2013-12-05 18:43:00,
2013-12-05 13:48:00,80.6,69.9,30.08,South,181,0.0,2.0,70,0.00,,,0.00,WeatherCatV1.21B27,2013-12-05 18:48:00,
2013-12-05 13:53:00,80.6,69.9,30.08,South,169,0.0,5.0,70,0.00,,,0.00,WeatherCatV1.21B27,2013-12-05 18:53:00,
2013-12-05 13:58:00,80.6,70.3,30.08,SSW,206,2.0,5.0,71,0.00,,,0.00,WeatherCatV1.21B27,2013-12-05 18:58:00,
2013-12-05 14:03:00,80.7,70.4,30.08,SSE,148,1.0,2.0,71,0.00,,,0.00,WeatherCatV1.21B27,2013-12-05 19:03:00,
2013-12-05 14:08:00,80.4,70.1,30.08,WSW,253,0.0,1.0,71,0.00,,,0.00,WeatherCatV1.21B27,2013-12-05 19:08:00,
2013-12-05 14:13:00,80.4,69.7,30.08,SSW,193,0.0,5.0,70,0.00,,,0.00,WeatherCatV1.21B27,2013-12-05 19:13:00,
2013-12-05 14:18:00,80.4,70.1,30.08,SSW,194,0.0,1.0,71,0.00,,,0.00,WeatherCatV1.21B27,2013-12-05 19:18:00,
2013-12-05 14:23:00,80.5,70.2,30.08,SW,233,0.0,2.0,71,0.00,,,0.00,WeatherCatV1.21B27,2013-12-05 19:23:00,
2013-12-05 14:28:00,80.6,70.3,30.08,SW,229,0.0,5.0,71,0.00,,,0.00,WeatherCatV1.21B27,2013-12-05 19:28:00,
2013-12-05 14:33:00,80.5,70.2,30.08,SSW,203,0.0,1.0,71,0.00,,,0.00,WeatherCatV1.21B27,2013-12-05 19:33:00,
2013-12-05 14:38:00,80.5,69.8,30.08,SSW,198,0.0,0.0,70,0.00,,,0.00,WeatherCatV1.21B27,2013-12-05 19:38:00,
2013-12-05 14:43:00,80.5,69.8,30.08,South,190,0.0,1.0,70,0.00,,,0.00,WeatherCatV1.21B27,2013-12-05 19:43:00,
2013-12-05 14:48:00,80.5,70.2,30.08,WSW,250,1.0,1.0,71,0.00,,,0.00,WeatherCatV1.21B27,2013-12-05 19:48:00,
2013-12-05 14:53:00,80.5,70.2,30.08,WSW,251,1.0,5.0,71,0.00,,,0.00,WeatherCatV1.21B27,2013-12-05 19:53:00,
2013-12-05 14:58:00,80.4,70.1,30.08,WSW,248,1.0,5.0,71,0.00,,,0.00,WeatherCatV1.21B27,2013-12-05 19:58:00,
2013-12-05 15:03:00,80.4,69.7,30.07,SSE,152,4.0,4.0,70,0.00,,,0.00,WeatherCatV1.21B27,2013-12-05 20:03:00,
2013-12-05 15:08:00,80.3,69.6,30.07,SSW,192,1.0,2.0,70,0.00,,,0.00,WeatherCatV1.21B27,2013-12-05 20:08:00,
2013-12-05 15:13:00,80.2,69.9,30.08,SW,225,0.0,2.0,71,0.00,,,0.00,WeatherCatV1.21B27,2013-12-05 20:13:00,
2013-12-05 15:18:00,80.0,69.7,30.07,SSE,163,0.0,5.0,71,0.00,,,0.00,WeatherCatV1.21B27,2013-12-05 20:18:00,
2013-12-05 15:23:00,79.9,70.0,30.07,SSW,204,0.0,3.0,72,0.00,,,0.00,WeatherCatV1.21B27,2013-12-05 20:23:00,
2013-12-05 15:28:00,79.8,69.9,30.07,SSW,197,1.0,5.0,72,0.00,,,0.00,WeatherCatV1.21B27,2013-12-05 20:28:00,
2013-12-05 15:33:00,79.6,70.2,30.07,SSW,202,0.0,0.0,73,0.00,,,0.00,WeatherCatV1.21B27,2013-12-05 20:33:00,
2013-12-05 15:38:00,79.4,70.4,30.07,SW,225,1.0,3.0,74,0.00,,,0.00,WeatherCatV1.21B27,2013-12-05 20:38:00,
2013-12-05 15:43:00,79.3,70.3,30.07,South,190,0.0,2.0,74,0.00,,,0.00,WeatherCatV1.21B27,2013-12-05 20:43:00,
2013-12-05 15:48:00,79.2,70.2,30.07,SSW,192,0.0,2.0,74,0.00,,,0.00,WeatherCatV1.21B27,2013-12-05 20:48:00,
2013-12-05 15:53:00,79.0,70.0,30.07,SE,126,0.0,2.0,74,0.00,,,0.00,WeatherCatV1.21B27,2013-12-05 20:53:00,
2013-12-05 15:58:00,78.8,70.2,30.07,SSW,195,0.0,2.0,75,0.00,,,0.00,WeatherCatV1.21B27,2013-12-05 20:58:00,
2013-12-05 16:03:00,78.7,70.1,30.07,SE,134,0.0,1.0,75,0.00,,,0.00,WeatherCatV1.21B27,2013-12-05 21:03:00,
2013-12-05 16:08:00,78.5,69.9,30.07,SW,227,1.0,1.0,75,0.00,,,0.00,WeatherCatV1.21B27,2013-12-05 21:08:00,
2013-12-05 16:13:00,78.4,69.8,30.07,SSW,211,0.0,2.0,75,0.00,,,0.00,WeatherCatV1.21B27,2013-12-05 21:13:00,
2013-12-05 16:18:00,78.4,70.2,30.07,SW,215,0.0,4.0,76,0.00,,,0.00,WeatherCatV1.21B27,2013-12-05 21:18:00,
2013-12-05 16:23:00,78.1,69.9,30.07,WSW,239,0.0,1.0,76,0.00,,,0.00,WeatherCatV1.21B27,2013-12-05 21:23:00,
2013-12-05 16:28:00,78.0,69.8,30.07,SW,222,1.0,3.0,76,0.00,,,0.00,WeatherCatV1.21B27,2013-12-05 21:28:00,
2013-12-05 16:33:00,77.8,69.6,30.07,SSW,207,0.0,0.0,76,0.00,,,0.00,WeatherCatV1.21B27,2013-12-05 21:33:00,
2013-12-05 16:38:00,77.6,69.8,30.07,WSW,242,0.0,3.0,77,0.00,,,0.00,WeatherCatV1.21B27,2013-12-05 21:38:00,
2013-12-05 16:43:00,77.5,69.7,30.07,SW,233,0.0,1.0,77,0.00,,,0.00,WeatherCatV1.21B27,2013-12-05 21:43:00,
2013-12-05 16:48:00,77.3,69.5,30.08,WSW,244,0.0,1.0,77,0.00,,,0.00,WeatherCatV1.21B27,2013-12-05 21:48:00,
2013-12-05 16:53:00,77.1,69.3,30.08,WSW,244,0.0,0.0,77,0.00,,,0.00,WeatherCatV1.21B27,2013-12-05 21:53:00,
2013-12-05 16:58:00,76.8,69.0,30.08,WSW,244,0.0,0.0,77,0.00,,,0.00,WeatherCatV1.21B27,2013-12-05 21:58:00,
2013-12-05 17:03:00,76.6,68.8,30.08,WSW,237,0.0,1.0,77,0.00,,,0.00,WeatherCatV1.21B27,2013-12-05 22:03:00,
2013-12-05 17:08:00,76.4,69.0,30.08,SW,216,0.0,1.0,78,0.00,,,0.00,WeatherCatV1.21B27,2013-12-05 22:08:00,
2013-12-05 17:13:00,76.3,68.9,30.08,SW,216,0.0,0.0,78,0.00,,,0.00,WeatherCatV1.21B27,2013-12-05 22:13:00,
2013-12-05 17:18:00,76.1,68.7,30.08,SW,216,0.0,1.0,78,0.00,,,0.00,WeatherCatV1.21B27,2013-12-05 22:18:00,
2013-12-05 17:23:00,75.9,68.5,30.08,SW,216,0.0,0.0,78,0.00,,,0.00,WeatherCatV1.21B27,2013-12-05 22:23:00,
2013-12-05 17:28:00,75.7,68.3,30.08,SW,216,0.0,0.0,78,0.00,,,0.00,WeatherCatV1.21B27,2013-12-05 22:28:00,
2013-12-05 17:33:00,75.5,68.5,30.08,SW,216,0.0,0.0,79,0.00,,,0.00,WeatherCatV1.21B27,2013-12-05 22:33:00,
2013-12-05 17:38:00,75.3,68.3,30.08,SW,216,0.0,0.0,79,0.00,,,0.00,WeatherCatV1.21B27,2013-12-05 22:38:00,
2013-12-05 17:43:00,75.1,68.1,30.08,SW,216,0.0,0.0,79,0.00,,,0.00,WeatherCatV1.21B27,2013-12-05 22:43:00,
2013-12-05 17:48:00,74.9,67.9,30.08,SW,216,0.0,0.0,79,0.00,,,0.00,WeatherCatV1.21B27,2013-12-05 22:48:00,
2013-12-05 17:53:00,74.7,68.1,30.08,SW,216,0.0,0.0,80,0.00,,,0.00,WeatherCatV1.21B27,2013-12-05 22:53:00,
2013-12-05 17:58:00,74.5,67.9,30.08,SW,216,0.0,0.0,80,0.00,,,0.00,WeatherCatV1.21B27,2013-12-05 22:58:00,
2013-12-05 18:03:00,74.4,67.8,30.09,SW,216,0.0,0.0,80,0.00,,,0.00,WeatherCatV1.21B27,2013-12-05 23:03:00,
2013-12-05 18:08:00,74.2,68.0,30.09,SW,216,0.0,0.0,81,0.00,,,0.00,WeatherCatV1.21B27,2013-12-05 23:08:00,
2013-12-05 18:13:00,74.0,67.8,30.09,SW,216,0.0,0.0,81,0.00,,,0.00,WeatherCatV1.21B27,2013-12-05 23:13:00,
2013-12-05 18:18:00,73.7,67.5,30.09,SW,216,0.0,0.0,81,0.00,,,0.00,WeatherCatV1.21B27,2013-12-05 23:18:00,
2013-12-05 18:23:00,73.5,67.3,30.09,SW,216,0.0,0.0,81,0.00,,,0.00,WeatherCatV1.21B27,2013-12-05 23:23:00,
2013-12-05 18:28:00,73.3,67.5,30.09,SW,216,0.0,0.0,82,0.00,,,0.00,WeatherCatV1.21B27,2013-12-05 23:28:00,
2013-12-05 18:33:00,73.0,67.5,30.09,SW,216,0.0,0.0,83,0.00,,,0.00,WeatherCatV1.21B27,2013-12-05 23:33:00,
2013-12-05 18:38:00,72.7,66.9,30.09,SW,216,0.0,0.0,82,0.00,,,0.00,WeatherCatV1.21B27,2013-12-05 23:38:00,
2013-12-05 18:43:00,72.4,66.9,30.09,SW,216,0.0,0.0,83,0.00,,,0.00,WeatherCatV1.21B27,2013-12-05 23:43:00,
2013-12-05 18:48:00,72.2,66.7,30.09,SW,216,0.0,0.0,83,0.00,,,0.00,WeatherCatV1.21B27,2013-12-05 23:48:00,
2013-12-05 18:53:00,71.9,66.4,30.10,SW,216,0.0,0.0,83,0.00,,,0.00,WeatherCatV1.21B27,2013-12-05 23:53:00,
2013-12-05 18:58:00,71.7,66.6,30.09,SW,216,0.0,0.0,84,0.00,,,0.00,WeatherCatV1.21B27,2013-12-05 23:58:00,
2013-12-05 19:03:00,71.6,66.8,30.09,SW,216,0.0,0.0,85,0.00,,,0.00,WeatherCatV1.21B27,2013-12-06 00:03:00,
2013-12-05 19:08:00,71.4,66.3,30.10,SW,216,0.0,0.0,84,0.00,,,0.00,WeatherCatV1.21B27,2013-12-06 00:08:00,
2013-12-05 19:13:00,71.3,66.2,30.09,SW,216,0.0,0.0,84,0.00,,,0.00,WeatherCatV1.21B27,2013-12-06 00:13:00,
2013-12-05 19:18:00,71.0,66.2,30.09,SW,216,0.0,0.0,85,0.00,,,0.00,WeatherCatV1.21B27,2013-12-06 00:18:00,
2013-12-05 19:23:00,70.8,66.1,30.10,SW,216,0.0,0.0,85,0.00,,,0.00,WeatherCatV1.21B27,2013-12-06 00:23:00,
2013-12-05 19:28:00,70.6,65.9,30.10,SW,216,0.0,0.0,85,0.00,,,0.00,WeatherCatV1.21B27,2013-12-06 00:28:00,
2013-12-05 19:33:00,70.4,66.0,30.10,SW,216,0.0,0.0,86,0.00,,,0.00,WeatherCatV1.21B27,2013-12-06 00:33:00,
2013-12-05 19:38:00,70.2,65.8,30.10,SW,216,0.0,0.0,86,0.00,,,0.00,WeatherCatV1.21B27,2013-12-06 00:38:00,
2013-12-05 19:43:00,70.0,65.6,30.10,SW,216,0.0,0.0,86,0.00,,,0.00,WeatherCatV1.21B27,2013-12-06 00:43:00,
2013-12-05 19:48:00,69.8,65.4,30.10,SW,216,0.0,0.0,86,0.00,,,0.00,WeatherCatV1.21B27,2013-12-06 00:48:00,
2013-12-05 19:53:00,69.7,65.7,30.10,SW,216,0.0,0.0,87,0.00,,,0.00,WeatherCatV1.21B27,2013-12-06 00:53:00,
2013-12-05 19:58:00,69.6,65.6,30.10,SW,216,0.0,0.0,87,0.00,,,0.00,WeatherCatV1.21B27,2013-12-06 00:58:00,
2013-12-05 20:03:00,69.4,65.3,30.10,SW,216,0.0,0.0,87,0.00,,,0.00,WeatherCatV1.21B27,2013-12-06 01:03:00,
2013-12-05 20:08:00,69.3,65.3,30.10,SW,216,0.0,0.0,87,0.00,,,0.00,WeatherCatV1.21B27,2013-12-06 01:08:00,
2013-12-05 20:13:00,69.2,65.2,30.10,SW,216,0.0,0.0,87,0.00,,,0.00,WeatherCatV1.21B27,2013-12-06 01:13:00,
2013-12-05 20:18:00,69.1,65.4,30.10,SW,216,0.0,0.0,88,0.00,,,0.00,WeatherCatV1.21B27,2013-12-06 01:18:00,
2013-12-05 20:23:00,69.0,65.3,30.10,SW,216,0.0,0.0,88,0.00,,,0.00,WeatherCatV1.21B27,2013-12-06 01:23:00,
2013-12-05 20:28:00,68.8,65.1,30.10,SW,216,0.0,0.0,88,0.00,,,0.00,WeatherCatV1.21B27,2013-12-06 01:28:00,
2013-12-05 20:33:00,68.6,64.9,30.10,SW,216,0.0,0.0,88,0.00,,,0.00,WeatherCatV1.21B27,2013-12-06 01:33:00,
2013-12-05 20:38:00,68.6,64.9,30.10,SW,216,0.0,0.0,88,0.00,,,0.00,WeatherCatV1.21B27,2013-12-06 01:38:00,
2013-12-05 20:43:00,68.5,64.8,30.10,SW,216,0.0,0.0,88,0.00,,,0.00,WeatherCatV1.21B27,2013-12-06 01:43:00,
2013-12-05 20:48:00,68.4,64.7,30.10,SW,216,0.0,0.0,88,0.00,,,0.00,WeatherCatV1.21B27,2013-12-06 01:48:00,
2013-12-05 20:53:00,68.3,64.9,30.10,SW,216,0.0,0.0,89,0.00,,,0.00,WeatherCatV1.21B27,2013-12-06 01:53:00,
2013-12-05 20:58:00,68.1,64.7,30.11,SW,216,0.0,0.0,89,0.00,,,0.00,WeatherCatV1.21B27,2013-12-06 01:58:00,
2013-12-05 21:03:00,68.0,64.6,30.11,SW,216,0.0,0.0,89,0.00,,,0.00,WeatherCatV1.21B27,2013-12-06 02:03:00,
2013-12-05 21:08:00,68.0,64.6,30.11,SW,216,0.0,0.0,89,0.00,,,0.00,WeatherCatV1.21B27,2013-12-06 02:08:00,
2013-12-05 21:13:00,68.0,64.6,30.11,SW,216,0.0,0.0,89,0.00,,,0.00,WeatherCatV1.21B27,2013-12-06 02:13:00,
2013-12-05 21:18:00,67.9,64.5,30.11,SW,216,0.0,0.0,89,0.00,,,0.00,WeatherCatV1.21B27,2013-12-06 02:18:00,
2013-12-05 21:23:00,67.9,64.5,30.11,SW,216,0.0,0.0,89,0.00,,,0.00,WeatherCatV1.21B27,2013-12-06 02:23:00,
2013-12-05 21:28:00,67.8,64.4,30.11,SW,216,0.0,0.0,89,0.00,,,0.00,WeatherCatV1.21B27,2013-12-06 02:28:00,
2013-12-05 21:33:00,67.7,64.7,30.11,SW,216,0.0,0.0,90,0.00,,,0.00,WeatherCatV1.21B27,2013-12-06 02:33:00,
2013-12-05 21:38:00,67.7,64.7,30.11,SW,216,0.0,0.0,90,0.00,,,0.00,WeatherCatV1.21B27,2013-12-06 02:38:00,
2013-12-05 21:43:00,67.7,64.7,30.11,SW,216,0.0,0.0,90,0.00,,,0.00,WeatherCatV1.21B27,2013-12-06 02:43:00,
2013-12-05 21:48:00,67.7,64.7,30.11,SW,216,0.0,0.0,90,0.00,,,0.00,WeatherCatV1.21B27,2013-12-06 02:48:00,
2013-12-05 21:53:00,67.6,64.6,30.11,SW,216,0.0,0.0,90,0.00,,,0.00,WeatherCatV1.21B27,2013-12-06 02:53:00,
2013-12-05 21:58:00,67.6,64.6,30.11,SW,216,0.0,0.0,90,0.00,,,0.00,WeatherCatV1.21B27,2013-12-06 02:58:00,
2013-12-05 22:03:00,67.5,64.8,30.11,SW,216,0.0,0.0,91,0.00,,,0.00,WeatherCatV1.21B27,2013-12-06 03:03:00,
2013-12-05 22:08:00,67.5,64.5,30.11,SW,216,0.0,0.0,90,0.00,,,0.00,WeatherCatV1.21B27,2013-12-06 03:08:00,
2013-12-05 22:13:00,67.5,64.5,30.11,SW,216,0.0,0.0,90,0.00,,,0.00,WeatherCatV1.21B27,2013-12-06 03:13:00,
2013-12-05 22:18:00,67.4,64.4,30.11,SW,216,0.0,0.0,90,0.00,,,0.00,WeatherCatV1.21B27,2013-12-06 03:18:00,
2013-12-05 22:23:00,67.4,64.7,30.12,SW,216,0.0,0.0,91,0.00,,,0.00,WeatherCatV1.21B27,2013-12-06 03:23:00,
2013-12-05 22:28:00,67.4,64.7,30.12,SW,216,0.0,0.0,91,0.00,,,0.00,WeatherCatV1.21B27,2013-12-06 03:28:00,
2013-12-05 22:33:00,67.2,64.2,30.12,SW,216,0.0,0.0,90,0.00,,,0.00,WeatherCatV1.21B27,2013-12-06 03:33:00,
2013-12-05 22:38:00,67.1,64.4,30.11,SW,216,0.0,0.0,91,0.00,,,0.00,WeatherCatV1.21B27,2013-12-06 03:38:00,
2013-12-05 22:43:00,67.1,64.4,30.11,SW,216,0.0,0.0,91,0.00,,,0.00,WeatherCatV1.21B27,2013-12-06 03:43:00,
2013-12-05 22:48:00,67.0,64.0,30.11,SW,216,0.0,0.0,90,0.00,,,0.00,WeatherCatV1.21B27,2013-12-06 03:48:00,
2013-12-05 22:53:00,66.9,64.2,30.11,SW,216,0.0,0.0,91,0.00,,,0.00,WeatherCatV1.21B27,2013-12-06 03:53:00,
2013-12-05 22:58:00,66.9,64.2,30.11,SW,216,0.0,0.0,91,0.00,,,0.00,WeatherCatV1.21B27,2013-12-06 03:58:00,
2013-12-05 23:03:00,66.9,64.2,30.11,SW,216,0.0,0.0,91,0.00,,,0.00,WeatherCatV1.21B27,2013-12-06 04:03:00,
2013-12-05 23:08:00,66.8,64.1,30.11,SW,216,0.0,0.0,91,0.00,,,0.00,WeatherCatV1.21B27,2013-12-06 04:08:00,
2013-12-05 23:13:00,66.8,64.1,30.11,SW,216,0.0,0.0,91,0.00,,,0.00,WeatherCatV1.21B27,2013-12-06 04:13:00,
2013-12-05 23:18:00,66.7,63.7,30.11,SW,216,0.0,0.0,90,0.00,,,0.00,WeatherCatV1.21B27,2013-12-06 04:18:00,
2013-12-05 23:23:00,66.7,64.0,30.11,SW,216,0.0,0.0,91,0.00,,,0.00,WeatherCatV1.21B27,2013-12-06 04:23:00,
2013-12-05 23:28:00,66.7,64.0,30.11,SW,216,0.0,0.0,91,0.00,,,0.00,WeatherCatV1.21B27,2013-12-06 04:28:00,
2013-12-05 23:33:00,66.7,64.0,30.11,SW,216,0.0,0.0,91,0.00,,,0.00,WeatherCatV1.21B27,2013-12-06 04:33:00,
2013-12-05 23:38:00,66.7,64.0,30.11,SW,216,0.0,0.0,91,0.00,,,0.00,WeatherCatV1.21B27,2013-12-06 04:38:00,
2013-12-05 23:43:00,66.7,64.0,30.11,SW,216,0.0,0.0,91,0.00,,,0.00,WeatherCatV1.21B27,2013-12-06 04:43:00,
2013-12-05 23:48:00,66.6,63.9,30.11,SW,216,0.0,0.0,91,0.00,,,0.00,WeatherCatV1.21B27,2013-12-06 04:48:00,
2013-12-05 23:53:00,66.6,63.9,30.10,SW,216,0.0,0.0,91,0.00,,,0.00,WeatherCatV1.21B27,2013-12-06 04:53:00,
2013-12-05 23:58:00,66.6,63.9,30.10,SW,216,0.0,0.0,91,0.00,,,0.00,WeatherCatV1.21B27,2013-12-06 04:58:00,